| time (UTC) | temp F | wind direction | speed MPH | gust MPH | rain 1hr in | rain 24hr in | rain mn in | humidity % | barometer mb |
| 20260901114552 | 69 | 212 | 0.0 | 2.0 | 0.00 | 0.58 | 0.58 | 92 | 1016.0 |
| 20260901113039 | 69 | 0 | 0.0 | 0.0 | 0.00 | 0.58 | 0.58 | 92 | 1016.1 |
| 20260901111544 | 69 | 0 | 0.0 | 0.0 | 0.00 | 0.58 | 0.58 | 92 | 1016.0 |
| 20260901110044 | 69 | 0 | 0.0 | 0.0 | 0.00 | 0.58 | 0.58 | 92 | 1016.1 |
| 20260901104540 | 69 | 0 | 0.0 | 0.0 | 0.00 | 0.58 | 0.58 | 92 | 1016.4 |
| 20260901103042 | 68 | 0 | 0.0 | 0.0 | 0.00 | 0.58 | 0.58 | 92 | 1016.4 |
| 20260901101545 | 68 | 0 | 0.0 | 0.0 | 0.00 | 0.58 | 0.58 | 92 | 1016.1 |
| 20260901100047 | 68 | 0 | 0.0 | 0.0 | 0.00 | 0.58 | 0.58 | 92 | 1015.8 |
| 20260901094543 | 68 | 0 | 0.0 | 0.0 | 0.00 | 0.58 | 0.58 | 92 | 1016.1 |
| 20260901093041 | 68 | 0 | 0.0 | 0.0 | 0.00 | 0.58 | 0.58 | 92 | 1016.1 |
| 20260901091548 | 68 | 0 | 0.0 | 0.0 | 0.00 | 0.58 | 0.58 | 92 | 1016.2 |
| 20260901090040 | 68 | 0 | 0.0 | 0.0 | 0.00 | 0.58 | 0.58 | 92 | 1016.4 |
| 20260901084542 | 68 | 0 | 0.0 | 0.0 | 0.00 | 0.58 | 0.58 | 92 | 1016.5 |
| 20260901083044 | 68 | 0 | 0.0 | 0.0 | 0.00 | 0.58 | 0.58 | 92 | 1016.4 |
| 20260901081544 | 68 | 0 | 0.0 | 2.0 | 0.00 | 0.58 | 0.58 | 92 | 1016.4 |
| 20260901080042 | 68 | 0 | 0.0 | 2.0 | 0.00 | 0.58 | 0.58 | 92 | 1016.5 |
| 20260901074548 | 68 | 0 | 0.0 | 2.0 | 0.00 | 0.58 | 0.58 | 91 | 1016.7 |
| 20260901073039 | 68 | 108 | 0.0 | 2.0 | 0.04 | 0.58 | 0.58 | 91 | 1016.8 |
| 20260901071537 | 68 | 0 | 0.0 | 0.0 | 0.16 | 0.58 | 0.58 | 91 | 1016.8 |
| 20260901070041 | 68 | 0 | 0.0 | 0.0 | 0.20 | 0.58 | 0.58 | 91 | 1016.6 |
| 20260901064542 | 67 | 0 | 0.0 | 0.0 | 0.20 | 0.58 | 0.58 | 91 | 1016.7 |
| 20260901063043 | 68 | 332 | 0.0 | 2.0 | 0.15 | 0.52 | 0.52 | 91 | 1017.3 |
| 20260901061538 | 68 | 116 | 0.0 | 2.0 | 0.13 | 0.42 | 0.42 | 91 | 1017.0 |
| 20260901060042 | 68 | 187 | 0.0 | 3.0 | 0.19 | 0.38 | 0.38 | 91 | 1017.3 |
| 20260901054540 | 68 | 0 | 0.0 | 5.0 | 0.26 | 0.38 | 0.38 | 91 | 1017.3 |
| 20260901053040 | 68 | 138 | 1.0 | 5.0 | 0.30 | 0.37 | 0.37 | 90 | 1017.1 |
| 20260901051539 | 68 | 121 | 0.0 | 2.0 | 0.29 | 0.29 | 0.29 | 90 | 1017.7 |
| 20260901050040 | 68 | 0 | 0.0 | 0.0 | 0.19 | 0.19 | 0.19 | 90 | 1017.9 |
| 20260901044541 | 69 | 0 | 0.0 | 2.0 | 0.12 | 0.12 | 0.12 | 89 | 1017.9 |
| 20260901043040 | 69 | 0 | 0.0 | 0.0 | 0.06 | 0.06 | 0.06 | 89 | 1017.9 |
| 20260901041544 | 70 | 0 | 0.0 | 0.0 | 0.00 | 0.00 | 0.00 | 88 | 1017.8 |
| 20260901040049 | 70 | 0 | 0.0 | 2.0 | 0.00 | 0.00 | 0.00 | 87 | 1017.7 |
| 20260901034538 | 70 | 0 | 0.0 | 2.0 | 0.00 | 0.00 | 0.00 | 86 | 1017.9 |
| 20260901033040 | 70 | 0 | 0.0 | 2.0 | 0.00 | 0.00 | 0.00 | 85 | 1017.9 |
| 20260901031540 | 70 | 0 | 0.0 | 3.0 | 0.00 | 0.00 | 0.00 | 85 | 1018.0 |
| 20260901030038 | 70 | 165 | 1.0 | 5.0 | 0.00 | 0.00 | 0.00 | 84 | 1018.2 |
| 20260901024603 | 70 | 0 | 0.0 | 3.0 | 0.00 | 0.00 | 0.00 | 84 | 1018.3 |
| 20260901023043 | 71 | 244 | 1.0 | 5.0 | 0.00 | 0.00 | 0.00 | 82 | 1018.5 |
| 20260901021540 | 71 | 189 | 2.0 | 6.0 | 0.00 | 0.00 | 0.00 | 82 | 1018.4 |
| 20260901020040 | 71 | 173 | 0.0 | 3.0 | 0.00 | 0.00 | 0.00 | 82 | 1018.4 |
| 20260901014540 | 71 | 223 | 0.0 | 2.0 | 0.00 | 0.04 | 0.00 | 81 | 1018.5 |
| 20260901013055 | 71 | 192 | 0.0 | 3.0 | 0.00 | 0.04 | 0.00 | 80 | 1018.7 |
| 20260901011542 | 71 | 141 | 0.0 | 4.0 | 0.00 | 0.04 | 0.00 | 80 | 1018.4 |
| 20260901010042 | 71 | 191 | 1.0 | 3.0 | 0.00 | 0.04 | 0.00 | 80 | 1018.2 |
| 20260901004544 | 71 | 0 | 0.0 | 0.0 | 0.00 | 0.04 | 0.00 | 79 | 1018.2 |
| 20260901003039 | 71 | 0 | 0.0 | 2.0 | 0.00 | 0.04 | 0.00 | 78 | 1018.1 |
| 20260901001540 | 71 | 0 | 0.0 | 2.0 | 0.00 | 0.04 | 0.00 | 78 | 1018.4 |
| 20260901000044 | 71 | 0 | 0.0 | 2.0 | 0.00 | 0.04 | 0.00 | 78 | 1018.1 |
| 20260831234546 | 72 | 0 | 0.0 | 2.0 | 0.00 | 0.04 | 0.00 | 77 | 1018.3 |
| 20260831233036 | 72 | 0 | 0.0 | 3.0 | 0.00 | 0.04 | 0.00 | 78 | 1018.4 |
| 20260831231536 | 72 | 0 | 0.0 | 2.0 | 0.00 | 0.04 | 0.00 | 77 | 1018.5 |
| 20260831230041 | 72 | 164 | 1.0 | 3.0 | 0.00 | 0.04 | 0.00 | 76 | 1018.4 |
| 20260831224539 | 73 | 133 | 1.0 | 5.0 | 0.00 | 0.04 | 0.00 | 75 | 1018.4 |
| 20260831223041 | 73 | 0 | 0.0 | 3.0 | 0.00 | 0.04 | 0.00 | 76 | 1018.3 |
| 20260831221546 | 73 | 99 | 0.0 | 4.0 | 0.00 | 0.04 | 0.00 | 76 | 1018.5 |
| 20260831220041 | 73 | 146 | 0.0 | 4.0 | 0.00 | 0.04 | 0.00 | 75 | 1018.7 |
| 20260831214540 | 73 | 113 | 1.0 | 3.0 | 0.00 | 0.04 | 0.00 | 76 | 1018.8 |
| 20260831213038 | 73 | 142 | 1.0 | 3.0 | 0.00 | 0.04 | 0.00 | 78 | 1018.8 |
| 20260831211540 | 72 | 178 | 1.0 | 2.0 | 0.00 | 0.04 | 0.00 | 78 | 1018.8 |
| 20260831210038 | 73 | 255 | 0.0 | 3.0 | 0.00 | 0.04 | 0.00 | 76 | 1019.1 |
| 20260831204540 | 73 | 0 | 1.0 | 4.0 | 0.00 | 0.04 | 0.00 | 73 | 1018.5 |
| 20260831203059 | 75 | 219 | 1.0 | 3.0 | 0.00 | 0.04 | 0.00 | 71 | 1018.4 |
| 20260831201535 | 76 | 142 | 0.0 | 2.0 | 0.00 | 0.04 | 0.00 | 68 | 1018.4 |
| 20260831200117 | 76 | 113 | 1.0 | 3.0 | 0.00 | 0.04 | 0.00 | 67 | 1018.7 |
| 20260831194551 | 77 | 103 | 0.0 | 2.0 | 0.00 | 0.04 | 0.00 | 64 | 1018.9 |
| 20260831193035 | 79 | 149 | 1.0 | 4.0 | 0.00 | 0.04 | 0.00 | 61 | 1019.1 |
| 20260831191540 | 77 | 181 | 1.0 | 3.0 | 0.00 | 0.04 | 0.00 | 63 | 1019.3 |
| 20260831190043 | 77 | 186 | 2.0 | 4.0 | 0.00 | 0.04 | 0.00 | 62 | 1019.7 |
| 20260831184540 | 77 | 63 | 1.0 | 4.0 | 0.00 | 0.04 | 0.00 | 62 | 1019.8 |
| 20260831183042 | 77 | 89 | 2.0 | 6.0 | 0.00 | 0.04 | 0.00 | 63 | 1019.7 |
| 20260831181549 | 78 | 164 | 1.0 | 4.0 | 0.00 | 0.04 | 0.00 | 61 | 1019.5 |
| 20260831180040 | 79 | 124 | 1.0 | 6.0 | 0.00 | 0.04 | 0.00 | 59 | 1019.8 |
| 20260831174549 | 79 | 68 | 1.0 | 5.0 | 0.00 | 0.04 | 0.00 | 58 | 1020.1 |
| 20260831173040 | 78 | 90 | 2.0 | 4.0 | 0.00 | 0.04 | 0.00 | 62 | 1019.9 |
| 20260831171540 | 76 | 88 | 3.0 | 8.0 | 0.00 | 0.04 | 0.00 | 62 | 1019.9 |
| 20260831170042 | 79 | 16 | 1.0 | 10.0 | 0.00 | 0.04 | 0.00 | 59 | 1020.1 |
| 20260831164538 | 78 | 109 | 2.0 | 9.0 | 0.00 | 0.04 | 0.00 | 60 | 1020.3 |
| 20260831163041 | 77 | 42 | 2.0 | 8.0 | 0.00 | 0.04 | 0.00 | 62 | 1020.5 |
| 20260831161542 | 77 | 117 | 2.0 | 9.0 | 0.00 | 0.04 | 0.00 | 61 | 1020.4 |
| 20260831160040 | 77 | 75 | 2.0 | 10.0 | 0.00 | 0.04 | 0.00 | 61 | 1020.5 |
| 20260831154611 | 77 | 46 | 2.0 | 8.0 | 0.00 | 0.04 | 0.00 | 60 | 1020.6 |
| 20260831153041 | 77 | 101 | 4.0 | 9.0 | 0.00 | 0.04 | 0.00 | 62 | 1020.5 |
| 20260831151544 | 76 | 81 | 1.0 | 7.0 | 0.00 | 0.04 | 0.00 | 64 | 1020.3 |
| 20260831150038 | 75 | 135 | 2.0 | 7.0 | 0.00 | 0.04 | 0.00 | 68 | 1020.5 |
| 20260831144536 | 73 | 149 | 1.0 | 5.0 | 0.00 | 0.04 | 0.00 | 70 | 1020.8 |
| 20260831143042 | 73 | 85 | 2.0 | 3.0 | 0.00 | 0.04 | 0.00 | 71 | 1020.8 |
| 20260831141541 | 72 | 170 | 1.0 | 5.0 | 0.00 | 0.04 | 0.00 | 73 | 1020.8 |
| 20260831140040 | 72 | 0 | 1.0 | 3.0 | 0.00 | 0.04 | 0.00 | 74 | 1020.6 |
| 20260831134545 | 72 | 121 | 1.0 | 4.0 | 0.00 | 0.04 | 0.00 | 73 | 1020.5 |
| 20260831133041 | 72 | 60 | 1.0 | 3.0 | 0.00 | 0.04 | 0.00 | 73 | 1020.5 |
| 20260831131541 | 72 | 113 | 0.0 | 3.0 | 0.00 | 0.04 | 0.00 | 75 | 1020.3 |
| 20260831130042 | 71 | 0 | 1.0 | 5.0 | 0.00 | 0.04 | 0.00 | 78 | 1020.2 |
| 20260831124535 | 69 | 59 | 1.0 | 2.0 | 0.00 | 0.04 | 0.00 | 82 | 1020.4 |
| 20260831123037 | 68 | 0 | 0.0 | 1.0 | 0.00 | 0.04 | 0.00 | 83 | 1020.5 |
| 20260831121546 | 68 | 0 | 1.0 | 3.0 | 0.00 | 0.04 | 0.00 | 83 | 1020.4 |
| 20260831120038 | 68 | 0 | 0.0 | 2.0 | 0.00 | 0.04 | 0.00 | 83 | 1020.3 |